Lapse_Rate
0.4 1.1 3.1 5.8 6.5 6.5 6.5 6.5 6.5 6.5 6.5 7.1 6.8 6.9 6.6 7.0 6.5 6.5 5.4 5.6 5.7 5.7 5.7 5.6 4.4 4.4 4.4 4.6 4.6 4.3 4.2 4.1 3.9 3.9 4.1 4.4 4.6 4.7 4.8 4.7 5.0 4.2 4.2 4.4 4.3 4.1 3.9 3.6 3.6
1.4 3.3 4.9 5.9 6.5 6.5 6.5 6.5 6.5 6.5 6.9 6.1 6.1 6.9 6.8 6.5 7.5 6.0 6.2 5.6 5.9 5.4 6.0 6.6 4.9 4.8 4.8 4.8 4.9 4.9 4.9 4.7 4.4 4.4 4.7 5.0 5.0 5.2 4.9 4.1 3.8 3.7 3.9 4.0 3.9 3.5 3.3 3.0 3.0
3.5 3.9 7.0 6.5 6.5 6.5 6.5 6.5 6.5 6.8 7.1 7.1 6.9 6.0 7.2 7.0 6.8 7.6 5.4 5.8 5.6 5.2 5.3 6.1 5.6 5.7 5.5 5.5 5.5 5.7 5.6 5.1 4.9 5.0 5.5 5.0 5.3 4.8 4.0 3.6 3.5 3.6 3.6 3.7 3.6 3.2 2.9 2.8 2.7
5.0 6.2 6.5 6.5 6.5 6.5 6.5 6.5 6.7 6.7 7.1 7.1 7.3 6.5 6.0 4.9 7.2 6.9 5.3 6.2 6.5 5.9 5.5 4.5 5.3 5.1 5.1 5.2 5.6 6.3 6.3 6.2 5.2 5.2 5.0 4.7 4.3 4.0 3.8 3.6 3.6 3.8 3.5 3.5 3.2 2.7 2.2 2.1 2.3
4.2 5.8 6.5 6.5 6.5 6.5 6.5 6.9 7.0 6.5 6.8 7.0 7.3 6.7 7.1 5.1 5.1 6.1 5.7 6.5 5.7 5.6 5.4 5.0 4.7 5.3 5.5 6.4 6.3 6.1 4.2 6.1 4.8 4.6 4.7 4.4 3.9 3.7 3.4 3.3 3.3 3.6 3.8 3.8 3.0 2.2 2.0 1.7 1.8
6.7 6.8 6.5 6.5 6.5 6.5 6.5 7.1 7.0 6.7 7.0 7.1 6.9 6.9 7.2 5.1 5.1 5.1 5.2 5.2 5.6 4.2 4.9 5.4 5.1 5.4 6.1 6.1 5.5 4.9 4.8 4.2 3.9 3.6 3.7 3.3 2.9 2.8 2.7 2.9 2.9 3.0 2.8 3.2 2.8 2.4 2.0 2.0 1.6
6.7 6.5 6.5 6.5 6.5 6.5 6.5 6.7 6.7 6.7 6.7 6.8 6.4 6.5 6.5 4.2 4.6 4.1 4.6 4.3 4.6 4.9 4.9 6.1 6.4 5.6 4.9 4.9 4.6 4.5 4.6 3.9 3.4 2.8 2.5 2.3 2.4 2.7 3.1 3.4 3.5 3.4 2.6 3.2 2.8 2.2 1.7 1.6 1.8
6.1 6.4 6.5 6.5 6.5 6.5 6.7 6.9 6.6 7.0 6.7 4.9 5.3 6.5 6.7 3.4 2.9 3.4 3.8 3.9 3.5 4.5 4.1 4.3 5.0 5.7 5.3 4.6 4.4 4.0 4.4 4.1 2.9 2.5 2.4 2.5 2.4 2.9 3.4 3.6 3.7 2.8 2.5 2.7 2.5 2.6 1.7 1.0 0.2
4.4 6.5 6.5 6.5 6.5 6.5 6.9 6.5 6.7 5.3 7.0 5.6 5.3 4.3 3.5 3.7 2.0 3.3 3.3 3.4 2.9 2.8 3.4 2.9 2.4 2.5 3.9 4.6 4.6 4.2 4.3 4.5 4.1 3.1 2.6 1.5 2.8 2.9 3.8 3.5 3.0 2.4 2.5 2.4 2.7 2.8 2.1 0.8 -0.2
6.7 6.5 6.5 6.5 6.5 6.5 6.7 6.7 6.9 6.8 6.9 6.9 5.4 2.6 1.9 3.0 2.3 3.1 4.5 4.1 3.6 2.8 2.0 3.0 3.2 2.8 3.1 3.4 3.5 4.1 4.3 3.8 3.8 3.3 2.8 2.9 3.3 3.1 3.2 2.7 2.3 2.3 2.0 1.8 1.9 1.0 0.6 0.4 2.2
6.8 6.5 6.5 6.6 6.9 7.0 6.7 6.8 6.6 6.7 6.5 7.0 6.8 4.2 1.4 1.6 3.3 3.7 5.1 5.3 4.4 3.1 2.4 1.6 2.3 3.0 3.5 3.2 2.9 3.6 2.8 2.5 1.9 2.9 2.2 2.5 2.2 1.5 1.1 1.2 1.6 1.5 0.4 1.3 1.6 0.2 1.1 1.3 1.8
6.5 6.7 6.8 6.9 6.8 6.9 6.5 7.1 6.8 7.0 7.0 7.2 6.6 3.7 1.7 0.7 1.4 2.7 4.5 5.0 4.7 3.3 2.7 2.1 2.4 2.7 2.9 2.6 3.3 2.3 2.0 1.8 3.3 2.6 1.8 0.8 0.5 1.0 1.3 1.0 0.8 1.1 1.6 1.1 0.9 0.4 0.5 0.7 1.2
6.5 6.5 6.9 6.8 6.5 7.0 7.1 6.8 6.7 6.8 6.0 5.4 3.5 2.7 2.9 2.4 1.2 2.4 5.9 5.5 5.6 4.0 2.7 2.7 2.3 2.3 2.7 2.6 2.0 1.8 2.1 2.8 3.1 2.6 1.9 0.5 0.5 0.9 0.6 0.5 0.5 1.2 1.0 1.8 1.7 1.8 1.6 1.5 1.7
6.8 6.8 6.8 6.9 6.9 6.9 6.6 6.6 6.8 6.7 4.8 3.4 1.7 2.9 4.4 5.0 6.4 7.0 6.1 5.4 5.7 4.7 3.8 3.1 2.7 2.6 2.6 2.3 2.1 2.1 2.0 1.9 2.4 2.2 1.8 1.7 1.2 0.7 0.3 1.3 1.5 1.8 1.9 2.0 2.4 2.4 2.5 2.2 1.9
6.9 6.5 6.5 6.6 6.8 6.6 6.9 6.5 6.5 7.0 4.2 4.8 3.5 3.1 3.5 3.6 5.6 6.8 7.1 6.3 6.6 5.7 4.3 3.0 3.0 2.3 2.3 1.9 1.4 1.1 0.9 1.1 1.8 1.8 1.4 1.0 0.7 0.9 1.2 1.4 1.7 1.7 1.5 1.6 1.7 1.5 2.2 2.4 1.8
6.5 6.5 6.5 6.5 6.5 6.6 6.7 6.5 6.5 6.3 6.8 7.1 5.9 3.9 3.3 3.7 4.6 6.5 7.2 7.6 7.2 5.7 3.6 3.3 3.0 2.5 2.0 2.4 1.8 1.4 1.1 1.2 1.5 1.9 1.9 1.0 1.3 1.6 1.4 1.8 1.5 1.1 1.4 2.2 2.7 2.8 2.6 2.2 2.6
6.5 6.5 6.5 6.5 6.5 6.5 6.5 6.5 6.5 6.7 7.0 7.0 7.1 6.5 3.8 3.4 4.0 5.0 6.4 7.7 7.1 5.9 4.1 2.9 2.5 2.4 2.4 1.5 1.4 1.2 1.0 1.8 1.9 2.1 2.2 1.4 1.8 1.5 2.0 1.7 1.0 1.0 1.8 2.2 2.3 3.1 2.2 1.7 1.9
6.5 6.5 6.5 6.5 6.5 6.5 6.5 6.5 6.5 7.0 7.0 7.0 7.2 7.2 5.6 3.8 2.1 3.2 4.6 6.0 6.8 5.9 4.5 3.3 2.3 2.6 2.5 1.2 1.1 1.3 1.3 1.2 1.5 2.8 2.1 1.6 2.2 1.8 2.3 1.8 1.5 1.3 1.9 1.1 1.9 2.0 2.4 2.2 2.2
6.5 6.5 6.5 6.5 6.5 6.5 6.5 6.5 6.5 6.7 6.8 6.8 7.0 7.0 7.0 5.2 3.5 2.7 3.1 4.7 3.5 5.2 4.2 3.3 2.1 2.2 3.1 2.2 1.7 2.9 3.2 2.1 0.9 2.2 2.1 1.9 1.7 1.9 2.1 1.8 0.9 1.8 2.7 1.9 2.1 1.9 1.1 1.4 1.8
6.5 6.5 6.5 6.5 6.5 6.5 6.5 6.5 6.5 6.5 6.5 6.9 7.0 7.1 7.1 6.9 3.9 2.9 2.9 2.9 3.3 3.4 4.2 3.4 2.3 1.6 3.2 3.5 3.4 2.0 2.2 2.7 1.9 1.3 1.7 2.3 2.1 1.6 2.1 2.0 1.8 1.4 1.3 1.6 1.9 2.1 1.9 2.1 3.1
6.5 6.5 6.5 6.5 6.5 6.5 6.5 6.5 6.5 6.5 6.7 7.0 6.9 7.1 6.8 5.5 4.5 2.7 1.6 1.0 2.1 2.8 3.1 2.9 2.3 1.4 2.2 3.1 2.6 1.4 0.8 1.8 2.5 1.4 2.0 1.8 1.8 1.8 2.0 1.9 1.3 1.1 1.7 1.5 1.8 2.2 2.2 1.8 1.8
6.5 6.5 6.5 6.5 6.5 6.5 6.5 6.5 6.5 6.5 6.5 6.5 6.9 7.0 7.1 6.2 4.1 3.8 2.4 1.8 1.4 1.2 3.7 4.1 3.4 1.2 1.4 2.0 3.4 2.4 2.6 2.4 2.9 2.1 1.9 1.9 2.3 2.5 2.0 1.8 1.9 1.7 1.5 1.5 1.5 2.2 2.7 2.9 2.2
6.5 6.5 6.5 6.5 6.5 6.5 6.5 6.5 6.5 6.5 6.5 6.5 6.5 6.8 5.5 4.7 3.9 3.6 3.4 2.6 2.2 2.9 3.4 4.7 3.4 2.0 1.7 2.0 2.9 3.5 3.4 3.3 1.7 2.0 1.4 1.2 1.4 1.8 1.6 1.1 1.2 1.4 1.4 1.5 1.3 1.1 1.8 3.0 3.6
6.5 6.5 6.5 6.5 6.5 6.5 6.5 6.5 6.5 6.5 6.5 6.5 6.5 6.7 5.5 5.2 4.5 3.1 2.5 3.0 2.7 2.2 2.2 3.1 3.3 2.6 1.7 2.6 3.1 3.8 3.1 2.1 2.0 1.7 0.8 0.9 0.7 2.0 2.1 1.2 1.5 1.0 0.9 1.2 1.0 1.3 1.8 2.2 3.2
6.5 6.5 6.5 6.5 6.5 6.5 6.5 6.5 6.5 6.5 6.5 6.5 6.5 6.8 5.8 4.6 3.1 2.2 3.1 3.0 3.4 2.3 2.7 4.0 4.3 3.3 2.3 3.1 2.9 3.6 3.3 2.8 1.9 1.1 0.5 0.3 0.9 1.6 1.3 1.4 1.3 1.5 0.7 0.1 0.1 0.7 1.1 1.9 2.7
6.5 6.5 6.5 6.5 6.5 6.5 6.5 6.5 6.5 6.5 6.5 6.8 6.9 7.1 6.3 5.7 4.9 4.4 4.6 4.9 5.3 4.1 4.0 3.9 5.2 4.7 3.2 2.9 2.5 2.6 3.8 3.9 2.8 1.0 1.2 0.8 1.2 1.4 1.3 1.7 1.5 1.0 0.5 0.2 0.5 1.2 1.1 1.0 1.5
6.5 6.5 6.5 6.5 6.5 6.5 6.5 6.5 6.5 6.5 6.5 6.5 6.7 7.0 7.0 6.9 6.4 5.3 5.2 5.2 5.0 4.7 4.9 5.6 5.8 4.8 3.5 2.8 2.5 2.9 3.4 3.2 2.8 1.3 0.9 1.0 0.9 1.4 1.4 1.4 1.5 0.8 0.5 0.7 0.9 1.2 1.0 1.4 1.8
6.5 6.5 6.5 6.5 6.5 6.5 6.5 6.5 6.5 6.5 6.5 6.5 6.5 6.7 6.9 6.3 6.1 5.6 4.9 4.2 4.3 5.1 5.9 6.6 6.3 4.7 3.5 3.4 3.1 2.9 3.4 2.8 1.8 1.2 0.9 0.2 0.7 1.8 0.3 0.3 1.3 0.9 1.2 1.1 1.5 1.2 1.1 1.4 1.7
6.5 6.5 6.5 6.5 6.5 6.5 6.5 6.5 6.5 6.5 6.5 6.5 6.5 6.9 4.7 7.3 7.0 6.3 5.8 5.1 5.1 5.1 5.5 6.4 5.4 3.8 3.3 2.5 2.5 2.9 2.2 2.3 1.2 1.4 1.7 0.5 0.8 0.4 0.5 0.5 0.6 1.2 1.1 1.3 1.8 2.0 2.0 2.6 2.0
6.5 6.5 6.5 6.5 6.5 6.5 6.5 6.5 6.5 6.5 6.5 6.5 6.7 7.1 7.3 6.7 6.5 4.4 6.7 6.0 5.5 6.0 5.2 4.8 4.2 3.4 1.9 2.0 2.2 2.2 2.1 1.7 1.2 1.8 1.8 0.9 0.8 1.3 1.3 0.7 0.8 1.2 1.4 1.5 2.1 1.9 1.9 2.0 1.9
Wind_Speed
6 5 2 2 1 0 3 4 3 5 3 1 1 3 3 3 3 2 2 3 5 13 17 19 18 21 21 19 17 16 17 18 18 19 19 20 20 19 19 18 15 17 15 14 14 14 13 13 11
6 2 3 2 1 2 3 2 7 6 1 5 3 3 4 3 2 2 3 6 10 12 14 16 17 21 22 22 20 19 18 19 19 19 18 19 18 16 16 17 17 15 14 13 13 13 13 13 12
4 3 1 3 2 3 3 4 6 4 9 10 3 1 1 3 2 4 1 11 11 11 14 14 17 18 21 23 22 22 21 20 20 20 18 16 15 17 16 15 14 14 14 13 13 14 14 14 13
3 2 3 1 7 5 5 13 11 14 6 3 4 4 2 1 3 3 8 13 13 11 14 18 20 20 20 21 25 24 23 22 19 17 17 16 17 16 15 14 13 12 13 12 14 15 16 16 13
3 2 0 1 4 5 7 10 9 10 7 0 3 2 3 3 4 8 11 10 11 12 13 15 18 20 22 22 23 22 28 18 20 19 17 17 17 16 15 14 13 11 11 11 13 16 17 17 15
3 2 2 4 4 6 7 10 4 4 2 0 3 3 2 4 8 6 10 9 9 10 13 15 16 16 17 20 19 22 22 23 22 21 19 18 18 17 16 15 15 14 15 12 14 17 18 16 17
5 4 5 6 7 7 5 4 3 6 5 3 3 3 1 7 8 7 11 8 7 8 11 13 16 16 20 20 20 20 20 22 22 22 21 20 18 17 17 16 16 15 17 12 14 16 18 18 16
2 3 4 6 5 7 5 2 3 5 3 6 3 4 2 6 12 8 8 10 7 8 8 11 17 15 15 15 20 20 19 20 22 21 19 18 21 20 18 16 16 17 16 13 13 13 18 20 21
3 3 6 6 7 5 2 2 1 2 2 3 7 4 0 9 13 9 5 5 5 6 7 8 8 13 14 17 15 17 21 21 20 21 19 16 12 18 16 16 15 17 16 16 15 11 15 25 23
4 4 7 5 6 7 3 3 3 3 4 5 5 6 4 14 13 13 12 11 9 8 8 8 9 9 13 13 16 14 16 15 15 14 16 15 14 16 17 17 16 16 17 17 15 15 13 19 14
4 7 3 6 10 7 6 4 3 4 8 11 8 6 12 15 17 17 16 15 11 10 8 9 9 12 11 9 11 12 11 11 12 16 16 16 15 13 12 11 9 11 13 11 9 13 12 15 15
4 7 6 7 2 2 4 5 11 10 16 12 11 5 14 19 19 20 18 16 16 12 11 11 10 8 8 11 10 10 9 10 11 13 16 14 11 12 10 9 8 8 10 13 10 12 14 18 17
6 7 6 7 13 10 10 16 13 11 16 7 6 9 17 19 22 20 17 14 17 13 11 11 10 10 8 6 7 8 7 10 15 14 12 12 11 7 9 9 8 8 11 10 11 14 15 17 17
0 5 11 11 14 10 13 15 7 10 6 4 5 10 13 15 14 15 16 15 19 15 13 12 11 10 10 8 8 6 9 10 11 12 13 13 11 11 10 10 9 9 11 12 13 13 14 13 16
4 8 12 14 8 7 5 4 9 7 3 5 7 8 11 12 13 18 16 17 17 14 13 12 12 10 11 10 8 8 8 10 8 8 11 13 13 13 12 10 8 11 12 14 15 17 17 13 16
5 2 7 5 4 3 3 12 7 2 2 11 8 8 11 14 17 16 15 16 15 14 15 14 11 13 12 12 9 8 10 9 10 11 12 12 12 14 13 9 8 14 13 13 12 9 11 11 10
0 10 8 7 3 4 2 5 7 10 10 14 12 10 10 12 16 17 19 15 17 17 15 16 14 14 14 11 9 8 9 7 9 12 12 12 12 12 12 10 12 15 13 11 9 9 11 11 11
7 8 7 8 5 10 19 23 16 14 9 14 14 13 13 14 20 18 21 18 15 14 14 15 13 14 15 10 9 6 6 5 8 10 10 14 11 11 9 11 12 13 7 8 10 12 11 12 12
11 14 17 18 15 7 16 19 17 17 13 15 16 18 17 16 19 14 18 18 16 13 13 14 15 15 13 12 11 10 9 7 5 9 12 13 13 13 10 9 11 11 9 10 12 12 15 11 12
14 15 17 13 13 7 11 23 20 19 21 19 21 17 14 12 10 11 15 17 19 19 17 15 16 16 15 12 10 6 9 6 5 6 11 12 11 12 12 11 8 10 9 12 13 14 10 9 6
11 12 8 10 3 5 12 22 11 8 13 15 18 16 9 12 12 11 14 18 18 20 22 20 20 19 15 17 11 9 8 7 6 7 7 8 13 12 10 9 8 9 9 10 12 12 11 9 5
9 13 11 7 5 10 2 13 28 15 6 6 14 14 9 9 8 9 13 15 19 22 20 21 20 21 18 19 15 18 12 11 7 8 8 7 12 14 14 13 10 8 7 11 10 9 8 10 8
12 6 9 6 5 6 15 6 18 11 20 13 8 7 7 8 6 8 14 17 17 17 17 18 17 18 17 18 16 14 13 8 10 9 12 7 7 10 11 12 10 7 6 7 9 9 9 7 7
7 8 5 7 6 11 25 14 21 17 8 3 4 7 9 13 14 11 11 12 13 14 16 16 18 18 17 18 16 17 17 15 12 11 8 7 5 7 10 11 10 10 8 7 7 7 7 6 6
10 2 3 3 4 10 3 7 18 20 15 11 5 7 10 11 11 12 9 11 12 15 16 15 19 18 17 17 16 16 17 17 17 16 10 11 8 7 9 9 9 7 10 10 10 8 8 7 6
7 2 4 6 8 15 19 13 16 8 13 9 11 9 8 9 9 11 8 7 10 13 16 16 17 16 17 17 17 15 19 11 11 12 11 8 8 9 11 10 11 12 12 11 10 7 7 9 7
3 9 9 11 17 14 15 23 24 24 17 10 7 8 10 10 8 8 5 5 8 11 15 18 18 16 16 16 14 13 14 15 14 14 14 9 10 9 11 12 9 11 11 11 10 7 9 9 8
6 4 4 3 5 10 10 16 14 18 17 11 9 5 7 7 6 4 4 8 9 13 15 16 16 15 15 14 11 10 11 11 13 13 14 12 9 11 12 12 11 10 10 10 9 9 10 10 8
9 12 11 13 10 11 16 12 11 15 17 16 18 17 10 10 6 6 8 8 10 12 14 14 12 14 14 13 12 12 11 10 8 10 11 13 12 10 11 13 12 11 11 9 8 9 10 10 10
18 12 9 4 7 9 12 12 12 11 15 17 20 18 12 11 12 6 9 10 10 12 12 11 12 13 14 16 13 13 12 15 12 11 11 12 13 11 12 13 13 11 10 9 10 10 9 10 10
Wind_Direction
116 123 111 71 188 108 246 244 249 234 233 200 154 200 238 324 241 310 297 334 170 153 156 158 152 151 147 148 147 138 131 128 125 124 127 130 132 132 131 126 130 112 114 116 112 107 101 95 90
129 98 64 89 135 241 255 251 245 259 241 161 211 160 211 223 183 134 194 168 161 154 153 155 154 149 149 148 150 145 139 134 131 130 133 134 133 140 128 107 105 111 112 108 106 100 94 90 84
113 38 143 89 117 229 267 223 269 273 279 233 246 254 182 185 177 157 150 148 151 151 150 151 149 146 146 149 148 144 139 136 133 133 137 134 130 112 109 108 108 113 113 113 108 101 96 91 86
114 83 86 246 238 248 240 284 289 304 309 236 204 222 198 226 171 156 151 153 151 156 157 155 155 153 154 155 152 146 140 139 131 131 131 125 122 119 117 113 113 120 119 119 113 108 101 95 87
61 92 180 267 261 264 241 265 285 298 291 263 212 216 219 194 145 148 148 144 146 153 161 159 158 159 158 155 137 142 140 140 127 122 123 122 119 117 116 116 114 111 105 107 108 107 108 107 97
107 117 207 261 254 260 274 259 273 254 287 236 205 206 215 153 160 147 144 147 147 147 160 163 164 153 143 132 128 126 119 124 120 120 120 119 120 124 124 120 114 109 105 105 102 104 108 99 96
164 160 216 231 255 274 237 175 218 311 299 266 147 234 127 193 169 148 152 141 139 148 158 158 152 134 123 120 121 122 123 124 123 121 125 128 132 126 122 116 114 112 103 111 110 108 107 96 104
131 200 188 220 210 264 202 230 248 246 287 129 153 243 223 189 162 140 140 146 134 159 153 146 149 147 134 129 129 122 119 120 120 125 124 134 127 122 118 114 118 110 106 107 101 107 111 104 90
148 227 230 225 189 255 239 327 203 336 221 205 191 206 360 164 151 151 142 145 146 144 148 142 135 132 138 131 127 122 127 124 124 127 132 118 112 120 123 112 114 110 116 115 110 111 110 101 87
210 223 228 232 217 255 237 234 313 248 230 240 240 215 177 168 177 179 183 177 173 165 157 152 149 136 129 131 129 135 135 133 135 138 141 131 128 123 121 119 116 119 118 113 117 114 99 91 106
173 247 257 257 236 264 289 267 222 253 265 249 249 224 181 186 192 195 197 189 182 175 167 158 153 152 144 143 137 140 136 135 136 147 145 138 126 115 108 122 134 131 119 120 125 99 88 102 103
232 243 237 282 249 232 246 277 278 250 258 262 252 210 186 191 199 202 197 192 181 179 178 162 155 156 150 150 155 145 144 142 158 161 153 138 129 125 137 138 139 125 132 126 119 104 102 100 102
222 261 269 253 284 271 259 252 255 260 257 269 280 204 204 204 205 206 202 197 187 181 176 177 163 154 159 149 137 144 150 165 158 159 159 144 141 142 147 137 127 136 126 117 116 116 113 107 104
243 260 286 292 276 266 262 265 183 247 255 257 253 236 230 229 220 215 202 202 193 179 180 177 172 157 151 157 148 145 149 153 159 159 160 162 147 147 147 143 140 135 131 131 128 126 118 109 104
307 305 302 267 260 243 168 220 213 217 164 268 266 254 237 228 221 223 218 208 205 192 170 175 169 162 157 155 146 141 148 147 154 157 161 157 153 152 150 143 142 139 135 131 130 123 121 114 103
313 274 294 314 300 304 224 268 271 148 250 321 294 261 248 232 221 219 221 213 197 187 177 170 170 168 162 162 154 154 154 159 160 164 168 161 158 159 153 149 144 145 142 141 138 134 126 112 108
243 271 253 288 294 292 300 294 274 288 285 282 266 269 241 245 233 219 216 213 201 188 179 173 170 171 164 153 149 145 148 156 163 164 164 166 162 165 156 150 146 150 145 143 136 137 125 122 110
255 265 254 265 275 294 297 285 285 279 263 267 268 273 249 232 236 219 214 208 200 188 188 180 168 167 163 151 142 141 143 146 156 164 163 158 163 162 156 147 149 149 143 142 141 137 127 122 119
257 261 271 270 269 283 269 278 279 280 274 269 272 266 251 238 240 217 212 203 197 192 187 179 167 166 163 166 158 163 170 163 145 159 158 160 158 158 154 155 153 155 154 147 145 134 130 125 131
245 259 265 276 272 209 281 281 285 274 269 266 267 265 260 248 242 219 206 205 202 192 191 181 178 172 176 178 178 160 153 158 146 142 152 155 159 159 163 164 168 155 142 146 150 149 140 138 164
238 233 240 256 300 268 291 286 274 272 261 259 266 263 254 240 233 214 204 207 205 200 190 184 182 176 175 171 157 132 121 131 150 160 159 155 158 157 162 167 166 158 151 157 165 167 160 152 170
247 221 245 257 295 293 156 294 302 291 286 254 256 270 274 247 236 240 222 214 210 209 199 193 182 174 172 168 171 167 168 162 170 167 154 151 164 164 164 162 171 170 162 162 164 166 162 162 155
277 212 236 252 246 303 255 257 275 267 287 276 253 300 292 286 264 235 225 224 215 206 200 195 181 179 172 176 170 168 167 161 152 157 146 145 151 165 163 155 159 153 157 159 161 166 169 161 160
303 297 268 269 258 256 273 210 271 280 298 269 322 310 320 328 317 295 256 224 214 199 190 182 180 179 172 169 175 172 165 159 152 156 150 149 145 157 164 150 155 147 142 153 149 154 163 158 162
26 12 287 249 203 249 352 240 248 286 306 312 349 307 303 301 306 310 272 222 205 191 186 184 182 179 173 170 173 173 172 164 162 159 158 152 156 166 166 156 153 148 144 134 128 132 139 153 153
316 228 246 268 273 283 292 257 254 280 307 294 301 301 298 311 329 332 311 237 208 194 187 184 188 181 176 174 170 167 170 166 165 160 153 151 159 164 161 155 149 141 134 127 127 122 121 123 122
5 286 291 269 255 261 260 274 280 282 292 326 328 345 337 335 343 343 324 218 194 193 194 189 187 181 177 176 165 173 166 162 163 155 136 156 149 161 155 148 141 138 133 134 127 121 118 116 117
221 335 344 287 274 259 257 267 265 297 299 286 291 333 313 311 305 296 251 218 196 199 197 196 193 183 170 161 165 163 156 159 151 150 147 143 142 163 152 144 147 139 139 135 126 127 130 129 132
310 288 261 275 249 273 279 260 269 286 299 305 304 292 257 276 275 257 245 232 217 199 194 193 177 165 156 147 150 148 143 134 148 132 152 146 147 151 150 145 144 144 142 142 136 135 140 140 131
253 284 329 264 294 298 299 288 296 303 310 313 302 302 262 244 270 259 254 220 213 208 195 184 174 171 166 162 157 150 156 144 146 149 153 145 143 157 154 145 145 145 139 144 150 151 157 143 140